Regional Weather Roundup
Issued by NWS New Orleans/Baton Rouge, LA

Home | Current Version | Previous Version | Graphics & Text | Print | Product List | Glossary On
Versions: 1 2 3 4 5 6 7 8 9 10 11 12 13 14 15 16 17 18 19 20 21 22 23 24 25 26 27 28 29 30 31 32 33 34 35 36 37 38 39 40 41 42 43 44 45 46 47 48 49 50
772
ASUS44 KLIX 011405
RWRLIX
NEW ORLEANS REGIONAL WEATHER ROUNDUP
NATIONAL WEATHER SERVICE NEW ORLEANS LA
800 AM CST SUN FEB 01 2015

NOTE: "FAIR" INDICATES FEW OR NO CLOUDS BELOW 12,000 FEET WITH NO
      SIGNIFICANT WEATHER AND/OR OBSTRUCTIONS TO VISIBILITY.
      SKY/WX - SKY CONDITION AND SIGNIFICANT WEATHER.
      TMP - AIR TEMPERATURE.     DP    - DEWPOINT TEMPERATURE.
      RH  - RELATIVE HUMIDITY.   PRES  - PRESSURE.
      HI  - HEAT INDEX.          WCI   - WIND CHILL INDEX.

*  THESE STATIONS ARE NOT NWS OR FAA STATIONS AND ARE NOT UNDER
   NWS QUALITY CONTROL.

LAZ038-040-048-061>063-065>067-069-011500-
SOUTHEAST LOUISIANA

CITY           SKY/WX    TMP DP  RH WIND       PRES   REMARKS
N.O. AUDUBON     N/A     61  61  99 MISG        N/A
N.O. INTL ARPT PTSUNNY   61  58  90 SE7       30.01R
N.O. LAKEFRONT CLOUDY    63  58  83 SE10      30.01F
N.O. DOWNTOWN* NOT AVBL
SLIDELL        CLOUDY    60  58  92 S6        30.03S
BATON ROUGE    CLOUDY    60  57  89 SE5       30.00R
BOOTHVILLE     CLOUDY    64  58  80 CALM      30.03S
BELLE CHASSE   CLOUDY    62  58  86 SE6       30.01F
BOGALUSA*        N/A     59  55  87 CALM      30.05R
GALLIANO*      RAIN      59  58  97 MISG      30.00F
NEW ROADS*     CLOUDY    58  57  94 SE6       30.00S
GONZALES*      PTSUNNY   60  60 100 CALM      30.01R
HAMMOND*       CLOUDY    59  57  94 SE6       30.02S
HOUMA*         NOT AVBL
PORT FOURCHON* PTSUNNY   64  63  94 E5        30.04F

$$

MSZ070-080>082-011500-
SOUTHERN MISSISSIPPI

CITY           SKY/WX    TMP DP  RH WIND       PRES   REMARKS
MCCOMB         CLOUDY    58  55  90 S9        30.00S
GULFPORT       LGT RAIN  61  57  87 SE8       30.03F
BILOXI         LGT RAIN  63  59  88 SE10      30.04S
PASCAGOULA     PTSUNNY   56  54  93 CALM      30.06F
STENNIS ARPT*  RAIN      57  54  88 CALM      30.04S

$$

COASTAL OBSERVATIONS
LAKE AND NEARSHORE STATIONS

STATION/POSITION TIME  TEMP    WIND        PRES    WAVE
                       AIR SEA DIR/SP/G            HT/PER
                 (UTC) (F)     (DEG/KT/KT) (MB)    (FT/S)
PASCAGOULA       1400   62     130/  3/  7 1017.2
WAVELAND YACHT   1400   60     150/  6/  8 1016.0
GRAND ISLE       1400   64 62  160/  7/ 10 1016.9
SOUTHWEST PASS   1400   64 48  160/ 17/ 21 1017.0
NEW CANAL        1400   61 55  130/  3/  7 1016.4
SHELL BEACH      1400   60 56  220/  4/  5 1016.6

OFFSHORE STATIONS

STATION/POSITION TIME  TEMP    WIND        PRES    WAVE
                       AIR SEA DIR/SP/G            HT/PER
                 (UTC) (F)     (DEG/KT/KT) (MB)    (FT/S)
64 S DAUPHIN ISL 1326   71 69  170/ 21/ 25 1017.4    5/ 6

$$




USA.gov is the U.S. government's official web portal to all federal, state and local government web resources and services.